When you browse on this site, cookies collect data to enhance your experience and personalize the content and advertising you see.
Visit our Privacy Policy to learn more. By continuing to use the site, you agree to this use of cookies and data.

Hourly Weather Chimichagua

Today, 4 July, Saturday

Time Temperature Precipitation Wind Pressure Humidity
00:00 +24°C° 0.2 mm 0 mps 754 mmHg 95%
01:00 +24°C° 0 mm 0 mps 753 mmHg 95%
02:00 +24°C° 0.1 mm 0 mps 753 mmHg 95%
03:00 +24°C° 0.1 mm 0 mps 753 mmHg 95%
04:00 +23°C° 0.1 mm 0 mps 753 mmHg 95%
05:00 +24°C° 0.1 mm 0 mps 753 mmHg 95%
06:00 +26°C° 0.1 mm 1 mps 754 mmHg 95%
07:00 +27°C° 0.1 mm 1 mps 754 mmHg 95%
08:00 +28°C° 0.3 mm 1 mps 754 mmHg 90%
09:00 +29°C° 0.3 mm 1 mps 754 mmHg 86%
10:00 +30°C° 0.3 mm 1 mps 755 mmHg 81%
11:00 +32°C° 0.2 mm 1 mps 754 mmHg 74%
12:00 +33°C° 0.2 mm 1 mps 753 mmHg 67%
13:00 +35°C° 0.2 mm 1 mps 753 mmHg 60%
14:00 +35°C° 0.4 mm 1 mps 752 mmHg 64%
15:00 +34°C° 0.4 mm 1 mps 752 mmHg 67%
16:00 +33°C° 0.4 mm 1 mps 751 mmHg 70%
17:00 +32°C° 0.3 mm 1 mps 752 mmHg 76%
18:00 +30°C° 0.3 mm 1 mps 752 mmHg 82%
19:00 +29°C° 0.3 mm 1 mps 753 mmHg 88%
20:00 +28°C° 1.1 mm 1 mps 753 mmHg 90%
21:00 +27°C° 1.1 mm 1 mps 754 mmHg 93%
22:00 +26°C° 1.1 mm 1 mps 754 mmHg 95%
23:00 +24°C° 0.8 mm 0 mps 754 mmHg 95%

Tomorrow, 5 July, Sunday

Time Temperature Precipitation Wind Pressure Humidity
00:00 +24°C° 0.8 mm 0 mps 754 mmHg 95%
01:00 +24°C° 0.8 mm 0 mps 754 mmHg 95%
02:00 +24°C° 0.9 mm 0 mps 754 mmHg 95%
03:00 +23°C° 0.9 mm 0 mps 754 mmHg 96%
04:00 +23°C° 0.9 mm 0 mps 754 mmHg 96%
05:00 +24°C° 0.3 mm 0 mps 754 mmHg 96%
06:00 +24°C° 0.3 mm 0 mps 755 mmHg 96%
07:00 +24°C° 0.3 mm 0 mps 755 mmHg 96%
08:00 +28°C° 0 mm 1 mps 755 mmHg 89%
09:00 +29°C° 0 mm 1 mps 755 mmHg 83%
10:00 +30°C° 0 mm 1 mps 755 mmHg 76%
11:00 +31°C° 0 mm 1 mps 755 mmHg 73%
12:00 +32°C° 0 mm 1 mps 754 mmHg 69%
13:00 +34°C° 0 mm 2 mps 754 mmHg 65%
14:00 +34°C° 0 mm 2 mps 753 mmHg 67%
15:00 +34°C° 0 mm 2 mps 753 mmHg 70%
16:00 +32°C° 0 mm 2 mps 752 mmHg 72%
17:00 +31°C° 0.6 mm 1 mps 753 mmHg 79%
18:00 +29°C° 0.6 mm 1 mps 753 mmHg 86%
19:00 +27°C° 0.6 mm 1 mps 754 mmHg 93%
20:00 +27°C° 0.7 mm 1 mps 754 mmHg 94%
21:00 +26°C° 0.7 mm 1 mps 755 mmHg 95%
22:00 +26°C° 0.7 mm 1 mps 755 mmHg 97%
23:00 +26°C° 0.2 mm 1 mps 755 mmHg 96%

Day after tomorrow, 6 July, Monday

Time Temperature Precipitation Wind Pressure Humidity
00:00 +23°C° 0.2 mm 0 mps 755 mmHg 96%
01:00 +23°C° 0.2 mm 0 mps 755 mmHg 96%
02:00 +23°C° 0 mm 0 mps 755 mmHg 96%
03:00 +23°C° 0 mm 0 mps 754 mmHg 96%
04:00 +23°C° 0 mm 0 mps 754 mmHg 96%
05:00 +23°C° 0 mm 0 mps 755 mmHg 95%
06:00 +24°C° 0 mm 0 mps 755 mmHg 95%
07:00 +24°C° 0 mm 0 mps 755 mmHg 94%
08:00 +26°C° 0 mm 0 mps 756 mmHg 85%
09:00 +29°C° 0 mm 0 mps 756 mmHg 77%
10:00 +31°C° 0 mm 0 mps 756 mmHg 68%
11:00 +33°C° 0 mm 1 mps 755 mmHg 65%
12:00 +34°C° 0 mm 1 mps 754 mmHg 62%
13:00 +34°C° 0 mm 1 mps 754 mmHg 59%
14:00 +34°C° 0.4 mm 1 mps 753 mmHg 64%
15:00 +33°C° 0.4 mm 1 mps 753 mmHg 69%
16:00 +32°C° 0.4 mm 1 mps 752 mmHg 75%
17:00 +31°C° 1 mm 1 mps 753 mmHg 81%
18:00 +29°C° 1 mm 1 mps 754 mmHg 87%
19:00 +26°C° 1 mm 0 mps 754 mmHg 93%
20:00 +27°C° 1.3 mm 1 mps 755 mmHg 94%
21:00 +26°C° 1.3 mm 1 mps 755 mmHg 95%
22:00 +26°C° 1.3 mm 1 mps 755 mmHg 95%
23:00 +26°C° 0.1 mm 1 mps 755 mmHg 95%

7 July, Tuesday

Time Temperature Precipitation Wind Pressure Humidity
00:00 +26°C° 0.1 mm 1 mps 755 mmHg 96%
01:00 +26°C° 0.1 mm 1 mps 755 mmHg 96%
02:00 +25°C° 0.3 mm 1 mps 755 mmHg 96%
03:00 +25°C° 0.3 mm 1 mps 755 mmHg 96%
04:00 +25°C° 0.3 mm 1 mps 755 mmHg 97%
05:00 +25°C° 0 mm 1 mps 755 mmHg 97%
06:00 +25°C° 0 mm 1 mps 755 mmHg 97%
07:00 +25°C° 0 mm 1 mps 756 mmHg 97%
08:00 +26°C° 0 mm 1 mps 756 mmHg 92%
09:00 +28°C° 0 mm 1 mps 756 mmHg 87%
10:00 +29°C° 0 mm 1 mps 756 mmHg 81%
11:00 +30°C° 0.2 mm 1 mps 755 mmHg 76%
12:00 +32°C° 0.2 mm 1 mps 755 mmHg 70%
13:00 +33°C° 0.2 mm 1 mps 754 mmHg 65%
14:00 +32°C° 0.1 mm 1 mps 754 mmHg 67%
15:00 +32°C° 0.1 mm 1 mps 753 mmHg 69%
16:00 +32°C° 0.1 mm 1 mps 753 mmHg 72%
17:00 +30°C° 1.4 mm 1 mps 753 mmHg 78%
18:00 +29°C° 1.4 mm 1 mps 753 mmHg 84%
19:00 +27°C° 1.4 mm 1 mps 754 mmHg 91%
20:00 +27°C° 4.1 mm 1 mps 754 mmHg 93%
21:00 +26°C° 4.1 mm 1 mps 755 mmHg 96%
22:00 +26°C° 4.1 mm 2 mps 756 mmHg 98%
23:00 +26°C° 1.9 mm 1 mps 755 mmHg 98%

8 July, Wednesday

Time Temperature Precipitation Wind Pressure Humidity
00:00 +25°C° 1.9 mm 1 mps 755 mmHg 98%
01:00 +25°C° 1.9 mm 1 mps 755 mmHg 99%
02:00 +23°C° 0.1 mm 0 mps 755 mmHg 99%
03:00 +23°C° 0.1 mm 0 mps 754 mmHg 99%
04:00 +23°C° 0.1 mm 0 mps 754 mmHg 99%
05:00 +23°C° 0 mm 0 mps 755 mmHg 98%
06:00 +23°C° 0 mm 0 mps 755 mmHg 98%
07:00 +24°C° 0 mm 0 mps 755 mmHg 97%
08:00 +25°C° 0 mm 0 mps 755 mmHg 92%
09:00 +26°C° 0 mm 0 mps 755 mmHg 87%
10:00 +28°C° 0 mm 0 mps 755 mmHg 81%
11:00 +29°C° 0 mm 0 mps 754 mmHg 75%
12:00 +33°C° 0 mm 1 mps 754 mmHg 68%
13:00 +34°C° 0 mm 1 mps 753 mmHg 62%
14:00 +33°C° 0.3 mm 1 mps 753 mmHg 66%
15:00 +33°C° 0.3 mm 1 mps 752 mmHg 71%
16:00 +32°C° 0.3 mm 2 mps 752 mmHg 75%
17:00 +30°C° 1.3 mm 2 mps 752 mmHg 81%
18:00 +29°C° 1.3 mm 1 mps 752 mmHg 87%
19:00 +27°C° 1.3 mm 1 mps 753 mmHg 93%
20:00 +27°C° 0.7 mm 1 mps 753 mmHg 94%
21:00 +27°C° 0.7 mm 1 mps 754 mmHg 95%
22:00 +26°C° 0.7 mm 1 mps 755 mmHg 96%
23:00 +24°C° 0 mm 0 mps 754 mmHg 96%

9 July, Thursday

Time Temperature Precipitation Wind Pressure Humidity
00:00 +24°C° 0 mm 0 mps 754 mmHg 96%
01:00 +24°C° 0 mm 0 mps 753 mmHg 97%
02:00 +24°C° 0 mm 0 mps 753 mmHg 97%
03:00 +24°C° 0 mm 0 mps 754 mmHg 97%
04:00 +24°C° 0 mm 0 mps 754 mmHg 97%
05:00 +26°C° 0 mm 1 mps 754 mmHg 96%
06:00 +26°C° 0 mm 1 mps 754 mmHg 96%
07:00 +26°C° 0 mm 1 mps 755 mmHg 95%
08:00 +28°C° 0 mm 1 mps 755 mmHg 88%
09:00 +29°C° 0 mm 1 mps 755 mmHg 82%
10:00 +31°C° 0 mm 1 mps 755 mmHg 75%
11:00 +32°C° 0 mm 1 mps 754 mmHg 70%
12:00 +34°C° 0 mm 1 mps 754 mmHg 64%
13:00 +33°C° 0 mm 0 mps 753 mmHg 59%
14:00 +34°C° 0.1 mm 1 mps 752 mmHg 62%
15:00 +34°C° 0.1 mm 1 mps 752 mmHg 66%
16:00 +33°C° 0.1 mm 1 mps 751 mmHg 69%
17:00 +32°C° 0.1 mm 1 mps 752 mmHg 75%
18:00 +30°C° 0.1 mm 1 mps 752 mmHg 82%
19:00 +28°C° 0.1 mm 1 mps 753 mmHg 88%
20:00 +28°C° 0.2 mm 1 mps 753 mmHg 90%
21:00 +27°C° 0.2 mm 1 mps 754 mmHg 91%
22:00 +27°C° 0.2 mm 1 mps 754 mmHg 92%
23:00 +24°C° 0.2 mm 0 mps 754 mmHg 93%
Show more